QPF
0.09 0.11 0.12 0.13 0.15 0.17 0.20 0.24 0.29 0.28 0.25 0.23 0.24 0.25 0.27 0.27 0.27 0.24 0.21 0.22 0.19 0.16 0.13 0.11 0.08 0.06 0.04 0.03 0.02 0.01 0.01 0.01 0.01 0.01 0.01 0.01 0.01 0.01
0.05 0.05 0.07 0.08 0.09 0.11 0.14 0.18 0.24 0.28 0.28 0.24 0.22 0.23 0.24 0.24 0.24 0.20 0.18 0.19 0.16 0.13 0.11 0.09 0.06 0.04 0.03 0.02 0.01 0.01 0.01 0.01 0.00 0.01 0.01 0.01 0.01 0.01
0.02 0.03 0.03 0.03 0.04 0.05 0.07 0.09 0.12 0.16 0.20 0.19 0.18 0.17 0.17 0.17 0.17 0.15 0.14 0.12 0.10 0.09 0.07 0.05 0.03 0.02 0.01 0.01 0.01 0.00 0.00 0.00 0.00 0.00 0.01 0.01 0.01 0.01
0.01 0.02 0.02 0.02 0.03 0.04 0.04 0.05 0.06 0.08 0.10 0.12 0.13 0.12 0.11 0.10 0.10 0.09 0.08 0.07 0.05 0.05 0.04 0.03 0.01 0.01 0.01 0.00 0.00 0.00 0.00 0.00 0.00 0.00 0.00 0.00 0.01 0.01
0.01 0.01 0.02 0.02 0.03 0.03 0.04 0.06 0.07 0.09 0.10 0.11 0.11 0.10 0.08 0.08 0.07 0.06 0.04 0.03 0.02 0.02 0.01 0.01 0.01 0.00 0.00 0.00 0.00 0.00 0.00 0.00 0.00 0.00 0.00 0.00 0.00 0.00
0.01 0.02 0.03 0.03 0.04 0.04 0.05 0.06 0.06 0.07 0.08 0.08 0.08 0.07 0.06 0.05 0.04 0.03 0.02 0.01 0.01 0.01 0.00 0.00 0.00 0.00 0.00 0.00 0.00 0.00 0.00 0.00 0.00 0.00 0.00 0.00 0.00 0.00
0.02 0.02 0.02 0.03 0.04 0.04 0.04 0.05 0.05 0.05 0.05 0.05 0.04 0.04 0.03 0.02 0.02 0.01 0.01 0.01 0.00 0.00 0.00 0.00 0.00 0.00 0.00 0.00 0.00 0.00 0.00 0.00 0.00 0.00 0.00 0.00 0.00 0.00
0.01 0.01 0.02 0.02 0.02 0.03 0.03 0.03 0.03 0.03 0.02 0.02 0.02 0.02 0.02 0.01 0.01 0.01 0.01 0.00 0.00 0.00 0.00 0.00 0.00 0.00 0.00 0.00 0.00 0.00 0.00 0.00 0.00 0.00 0.00 0.00 0.00 0.01
0.01 0.01 0.02 0.02 0.02 0.02 0.02 0.02 0.02 0.01 0.01 0.01 0.01 0.01 0.01 0.01 0.00 0.00 0.00 0.00 0.00 0.00 0.00 0.00 0.00 0.00 0.00 0.00 0.00 0.00 0.00 0.00 0.00 0.00 0.00 0.00 0.00 0.00
0.00 0.00 0.01 0.01 0.01 0.01 0.01 0.01 0.01 0.01 0.01 0.01 0.00 0.00 0.00 0.00 0.00 0.00 0.00 0.00 0.00 0.00 0.00 0.00 0.00 0.00 0.00 0.00 0.00 0.00 0.00 0.00 0.00 0.00 0.00 0.00 0.00 0.00
0.00 0.00 0.00 0.01 0.00 0.00 0.00 0.00 0.00 0.00 0.00 0.00 0.00 0.00 0.00 0.00 0.00 0.00 0.00 0.00 0.00 0.00 0.00 0.00 0.00 0.00 0.00 0.00 0.00 0.00 0.00 0.00 0.00 0.00 0.00 0.00 0.00 0.00
0.00 0.00 0.00 0.00 0.00 0.00 0.00 0.00 0.00 0.00 0.00 0.00 0.00 0.00 0.00 0.00 0.00 0.00 0.00 0.00 0.00 0.00 0.00 0.00 0.00 0.00 0.00 0.00 0.00 0.00 0.00 0.00 0.00 0.00 0.00 0.00 0.00 0.00
0.00 0.00 0.00 0.00 0.00 0.00 0.00 0.00 0.00 0.00 0.00 0.00 0.00 0.00 0.00 0.00 0.00 0.00 0.00 0.00 0.00 0.00 0.00 0.00 0.01 0.01 0.01 0.00 0.00 0.00 0.00 0.00 0.00 0.00 0.00 0.00 0.00 0.00
0.00 0.00 0.00 0.00 0.00 0.00 0.00 0.00 0.00 0.00 0.00 0.00 0.00 0.00 0.00 0.00 0.00 0.00 0.00 0.00 0.00 0.00 0.00 0.01 0.02 0.02 0.02 0.02 0.00 0.00 0.00 0.00 0.00 0.00 0.00 0.00 0.00 0.00
0.00 0.00 0.00 0.00 0.00 0.00 0.00 0.00 0.00 0.00 0.00 0.00 0.00 0.00 0.00 0.00 0.00 0.00 0.00 0.00 0.00 0.00 0.00 0.00 0.01 0.02 0.03 0.03 0.01 0.00 0.00 0.00 0.00 0.00 0.00 0.00 0.00 0.00
0.00 0.00 0.00 0.00 0.00 0.00 0.00 0.00 0.00 0.00 0.00 0.00 0.00 0.00 0.00 0.00 0.00 0.00 0.00 0.00 0.00 0.00 0.00 0.00 0.00 0.01 0.02 0.02 0.01 0.01 0.00 0.00 0.00 0.00 0.00 0.00 0.00 0.00
0.00 0.00 0.00 0.00 0.00 0.00 0.00 0.00 0.00 0.00 0.00 0.00 0.00 0.00 0.00 0.00 0.00 0.00 0.00 0.01 0.01 0.00 0.00 0.00 0.00 0.00 0.01 0.01 0.01 0.00 0.00 0.00 0.00 0.00 0.00 0.00 0.00 0.00
0.00 0.00 0.00 0.00 0.00 0.00 0.00 0.00 0.00 0.00 0.00 0.00 0.00 0.00 0.00 0.00 0.00 0.00 0.00 0.01 0.01 0.00 0.00 0.00 0.00 0.01 0.01 0.00 0.00 0.00 0.00 0.00 0.00 0.00 0.00 0.01 0.00 0.00
0.00 0.00 0.00 0.00 0.00 0.00 0.00 0.00 0.00 0.00 0.00 0.00 0.00 0.00 0.01 0.01 0.01 0.01 0.01 0.01 0.01 0.00 0.00 0.00 0.01 0.03 0.03 0.01 0.00 0.00 0.00 0.00 0.00 0.00 0.00 0.00 0.00 0.00
0.00 0.00 0.00 0.00 0.00 0.00 0.00 0.00 0.00 0.00 0.00 0.00 0.00 0.01 0.01 0.01 0.01 0.01 0.01 0.01 0.01 0.01 0.00 0.00 0.01 0.02 0.04 0.03 0.02 0.00 0.00 0.00 0.00 0.01 0.00 0.00 0.00 0.00
0.00 0.00 0.00 0.00 0.00 0.00 0.00 0.00 0.00 0.00 0.00 0.00 0.01 0.01 0.01 0.01 0.01 0.01 0.01 0.01 0.01 0.01 0.01 0.00 0.00 0.01 0.02 0.05 0.04 0.00 0.00 0.00 0.00 0.01 0.01 0.02 0.02 0.01
0.00 0.00 0.00 0.00 0.00 0.00 0.00 0.00 0.00 0.00 0.00 0.01 0.01 0.01 0.01 0.01 0.01 0.01 0.01 0.01 0.01 0.01 0.01 0.00 0.00 0.01 0.02 0.04 0.03 0.01 0.00 0.00 0.00 0.00 0.01 0.02 0.05 0.04
0.00 0.00 0.00 0.00 0.00 0.00 0.00 0.00 0.00 0.00 0.00 0.01 0.01 0.01 0.01 0.01 0.01 0.01 0.01 0.01 0.01 0.01 0.01 0.01 0.00 0.00 0.01 0.02 0.02 0.01 0.00 0.00 0.00 0.00 0.00 0.00 0.00 0.01
MSLP
1017.36 1017.57 1017.79 1018.02 1018.25 1018.49 1018.75 1019.03 1019.33 1019.66 1020.01 1020.36 1020.71 1021.04 1021.34 1021.60 1021.82 1022.01 1022.17 1022.31 1022.43 1022.55 1022.66 1022.76 1022.85 1022.92 1022.96 1022.97 1022.96 1022.93 1022.89 1022.85 1022.81 1022.76 1022.70 1022.63 1022.53 1022.41
1017.90 1018.09 1018.28 1018.46 1018.65 1018.84 1019.05 1019.28 1019.54 1019.83 1020.16 1020.50 1020.84 1021.17 1021.47 1021.73 1021.95 1022.13 1022.27 1022.38 1022.47 1022.55 1022.62 1022.67 1022.71 1022.73 1022.73 1022.71 1022.68 1022.64 1022.60 1022.56 1022.52 1022.48 1022.44 1022.38 1022.29 1022.18
1018.63 1018.80 1018.96 1019.11 1019.24 1019.37 1019.52 1019.69 1019.89 1020.13 1020.40 1020.70 1021.01 1021.32 1021.60 1021.85 1022.05 1022.21 1022.34 1022.43 1022.49 1022.53 1022.55 1022.55 1022.54 1022.51 1022.47 1022.41 1022.36 1022.30 1022.26 1022.22 1022.20 1022.17 1022.15 1022.11 1022.04 1021.94
1019.43 1019.60 1019.74 1019.86 1019.95 1020.03 1020.11 1020.21 1020.35 1020.52 1020.73 1020.98 1021.24 1021.50 1021.75 1021.97 1022.16 1022.30 1022.40 1022.47 1022.50 1022.50 1022.48 1022.43 1022.37 1022.29 1022.20 1022.11 1022.02 1021.95 1021.90 1021.87 1021.85 1021.85 1021.85 1021.84 1021.79 1021.71
1020.24 1020.41 1020.54 1020.64 1020.70 1020.74 1020.77 1020.81 1020.88 1020.99 1021.13 1021.32 1021.52 1021.73 1021.94 1022.13 1022.29 1022.41 1022.49 1022.53 1022.53 1022.50 1022.44 1022.35 1022.24 1022.11 1021.97 1021.84 1021.72 1021.62 1021.56 1021.53 1021.52 1021.53 1021.55 1021.55 1021.52 1021.46
1020.99 1021.17 1021.30 1021.38 1021.42 1021.43 1021.42 1021.42 1021.44 1021.49 1021.57 1021.69 1021.84 1022.01 1022.17 1022.32 1022.45 1022.55 1022.61 1022.63 1022.61 1022.55 1022.46 1022.33 1022.18 1022.00 1021.82 1021.64 1021.48 1021.35 1021.26 1021.22 1021.20 1021.21 1021.24 1021.25 1021.22 1021.16
1021.66 1021.83 1021.95 1022.03 1022.06 1022.05 1022.02 1021.99 1021.97 1021.97 1022.01 1022.08 1022.18 1022.30 1022.42 1022.54 1022.64 1022.72 1022.76 1022.77 1022.74 1022.66 1022.54 1022.39 1022.20 1021.98 1021.75 1021.53 1021.32 1021.15 1021.03 1020.95 1020.91 1020.90 1020.91 1020.91 1020.88 1020.81
1022.22 1022.38 1022.49 1022.56 1022.58 1022.56 1022.51 1022.46 1022.42 1022.40 1022.40 1022.44 1022.50 1022.58 1022.67 1022.76 1022.84 1022.90 1022.94 1022.94 1022.90 1022.81 1022.68 1022.50 1022.28 1022.03 1021.76 1021.49 1021.24 1021.02 1020.85 1020.72 1020.64 1020.60 1020.57 1020.55 1020.49 1020.41
1022.69 1022.81 1022.90 1022.95 1022.95 1022.93 1022.88 1022.82 1022.77 1022.73 1022.71 1022.72 1022.76 1022.81 1022.88 1022.95 1023.02 1023.07 1023.10 1023.10 1023.06 1022.97 1022.83 1022.64 1022.40 1022.12 1021.82 1021.51 1021.21 1020.94 1020.71 1020.53 1020.40 1020.30 1020.23 1020.16 1020.07 1019.96
1023.05 1023.13 1023.18 1023.20 1023.19 1023.16 1023.11 1023.05 1022.99 1022.94 1022.92 1022.91 1022.93 1022.97 1023.02 1023.08 1023.14 1023.19 1023.22 1023.23 1023.19 1023.10 1022.96 1022.76 1022.51 1022.21 1021.88 1021.54 1021.20 1020.88 1020.59 1020.35 1020.16 1020.01 1019.88 1019.76 1019.63 1019.48
1023.31 1023.33 1023.35 1023.34 1023.32 1023.27 1023.21 1023.15 1023.09 1023.05 1023.02 1023.00 1023.01 1023.04 1023.09 1023.14 1023.19 1023.24 1023.27 1023.27 1023.24 1023.15 1023.01 1022.81 1022.55 1022.25 1021.90 1021.53 1021.16 1020.80 1020.47 1020.18 1019.93 1019.71 1019.53 1019.36 1019.19 1019.00
1023.46 1023.45 1023.43 1023.40 1023.36 1023.30 1023.24 1023.18 1023.12 1023.07 1023.04 1023.02 1023.02 1023.04 1023.07 1023.11 1023.16 1023.20 1023.23 1023.23 1023.19 1023.11 1022.97 1022.76 1022.50 1022.19 1021.84 1021.46 1021.06 1020.68 1020.31 1019.98 1019.68 1019.41 1019.17 1018.95 1018.74 1018.52
1023.53 1023.49 1023.45 1023.40 1023.35 1023.29 1023.23 1023.17 1023.11 1023.06 1023.01 1022.99 1022.97 1022.98 1023.00 1023.03 1023.06 1023.09 1023.10 1023.09 1023.05 1022.95 1022.80 1022.60 1022.34 1022.02 1021.67 1021.28 1020.88 1020.47 1020.09 1019.72 1019.39 1019.08 1018.80 1018.53 1018.27 1018.01
1023.52 1023.48 1023.44 1023.39 1023.35 1023.29 1023.23 1023.17 1023.10 1023.04 1022.98 1022.94 1022.91 1022.90 1022.90 1022.91 1022.92 1022.93 1022.92 1022.88 1022.81 1022.70 1022.54 1022.32 1022.05 1021.73 1021.37 1020.99 1020.58 1020.17 1019.77 1019.39 1019.03 1018.69 1018.36 1018.05 1017.75 1017.46
1023.48 1023.45 1023.43 1023.41 1023.37 1023.33 1023.27 1023.20 1023.12 1023.05 1022.97 1022.91 1022.86 1022.82 1022.79 1022.77 1022.75 1022.73 1022.68 1022.62 1022.51 1022.37 1022.18 1021.94 1021.66 1021.33 1020.97 1020.58 1020.17 1019.77 1019.36 1018.96 1018.58 1018.21 1017.85 1017.50 1017.15 1016.81
1023.43 1023.44 1023.45 1023.46 1023.44 1023.40 1023.35 1023.27 1023.18 1023.09 1022.99 1022.90 1022.82 1022.75 1022.69 1022.64 1022.58 1022.51 1022.43 1022.32 1022.17 1021.99 1021.76 1021.49 1021.19 1020.84 1020.47 1020.07 1019.67 1019.25 1018.84 1018.43 1018.02 1017.62 1017.22 1016.83 1016.43 1016.05
1023.39 1023.45 1023.50 1023.53 1023.54 1023.51 1023.45 1023.36 1023.26 1023.14 1023.02 1022.90 1022.79 1022.69 1022.60 1022.51 1022.41 1022.30 1022.17 1022.01 1021.81 1021.58 1021.31 1021.00 1020.66 1020.29 1019.90 1019.49 1019.07 1018.65 1018.22 1017.79 1017.36 1016.93 1016.49 1016.04 1015.60 1015.15
1023.37 1023.47 1023.55 1023.61 1023.62 1023.59 1023.53 1023.43 1023.31 1023.17 1023.03 1022.89 1022.75 1022.62 1022.49 1022.37 1022.23 1022.08 1021.90 1021.69 1021.45 1021.17 1020.85 1020.49 1020.11 1019.71 1019.29 1018.86 1018.42 1017.98 1017.53 1017.07 1016.61 1016.13 1015.65 1015.16 1014.65 1014.15
1023.33 1023.45 1023.55 1023.62 1023.63 1023.61 1023.53 1023.42 1023.28 1023.13 1022.97 1022.81 1022.65 1022.50 1022.35 1022.19 1022.02 1021.83 1021.62 1021.36 1021.07 1020.74 1020.37 1019.98 1019.56 1019.12 1018.66 1018.20 1017.74 1017.26 1016.78 1016.29 1015.79 1015.27 1014.74 1014.20 1013.65 1013.10
1023.22 1023.35 1023.45 1023.51 1023.53 1023.49 1023.41 1023.29 1023.14 1022.98 1022.81 1022.64 1022.47 1022.31 1022.14 1021.96 1021.77 1021.55 1021.29 1021.00 1020.67 1020.30 1019.89 1019.45 1018.99 1018.51 1018.02 1017.53 1017.03 1016.52 1016.00 1015.47 1014.93 1014.37 1013.80 1013.21 1012.62 1012.03
1022.99 1023.11 1023.20 1023.25 1023.25 1023.20 1023.11 1022.99 1022.85 1022.69 1022.53 1022.36 1022.19 1022.02 1021.85 1021.65 1021.44 1021.20 1020.91 1020.59 1020.22 1019.81 1019.37 1018.89 1018.40 1017.88 1017.36 1016.83 1016.29 1015.74 1015.19 1014.62 1014.04 1013.44 1012.83 1012.22 1011.61 1011.00
1022.61 1022.70 1022.77 1022.80 1022.79 1022.74 1022.65 1022.54 1022.41 1022.26 1022.11 1021.96 1021.80 1021.63 1021.45 1021.25 1021.01 1020.75 1020.44 1020.09 1019.69 1019.25 1018.78 1018.28 1017.75 1017.20 1016.65 1016.08 1015.51 1014.93 1014.33 1013.73 1013.11 1012.49 1011.86 1011.23 1010.61 1010.01
1022.05 1022.12 1022.17 1022.18 1022.16 1022.12 1022.04 1021.95 1021.83 1021.71 1021.58 1021.44 1021.29 1021.12 1020.94 1020.72 1020.47 1020.18 1019.85 1019.47 1019.05 1018.59 1018.09 1017.56 1017.01 1016.44 1015.86 1015.26 1014.66 1014.04 1013.41 1012.78 1012.14 1011.50 1010.86 1010.23 1009.63 1009.06
Thickness
5588 5583 5576 5569 5562 5555 5548 5541 5534 5528 5523 5515 5508 5504 5502 5501 5499 5496 5494 5492 5489 5485 5483 5481 5480 5480 5478 5479 5478 5477 5478 5479 5479 5479 5480 5481 5483 5484
5574 5568 5561 5553 5546 5540 5533 5526 5520 5515 5510 5500 5492 5488 5486 5486 5484 5482 5478 5476 5474 5472 5470 5468 5468 5467 5467 5467 5466 5466 5467 5467 5467 5467 5468 5469 5470 5471
5559 5553 5545 5538 5531 5524 5517 5510 5504 5499 5494 5484 5478 5473 5472 5471 5469 5467 5464 5463 5461 5459 5458 5457 5455 5455 5455 5454 5454 5454 5454 5455 5454 5454 5454 5455 5456 5457
5544 5538 5531 5524 5517 5509 5502 5495 5489 5484 5480 5473 5465 5462 5460 5458 5456 5454 5452 5450 5448 5448 5446 5444 5444 5444 5443 5443 5442 5442 5442 5441 5441 5441 5441 5441 5442 5442
5528 5523 5516 5510 5503 5495 5489 5482 5477 5472 5468 5463 5456 5452 5449 5446 5444 5442 5440 5439 5438 5436 5434 5433 5433 5432 5431 5430 5430 5429 5428 5427 5427 5427 5426 5426 5426 5427
5514 5509 5503 5497 5490 5484 5478 5471 5465 5460 5456 5452 5447 5443 5440 5437 5434 5432 5430 5428 5426 5425 5423 5422 5420 5419 5418 5417 5416 5415 5414 5413 5413 5413 5412 5412 5412 5411
5500 5496 5491 5485 5480 5474 5468 5461 5456 5451 5446 5442 5438 5434 5430 5427 5424 5422 5419 5416 5414 5413 5411 5409 5408 5407 5405 5403 5402 5400 5400 5399 5399 5398 5397 5397 5397 5396
5487 5482 5478 5473 5469 5465 5460 5454 5449 5443 5437 5433 5428 5424 5420 5417 5415 5412 5407 5403 5400 5401 5398 5397 5396 5394 5392 5390 5388 5387 5386 5385 5384 5383 5382 5382 5381 5380
5475 5471 5467 5463 5457 5452 5449 5444 5440 5436 5432 5426 5420 5416 5412 5408 5405 5400 5396 5391 5388 5388 5385 5383 5382 5379 5378 5376 5374 5373 5372 5371 5369 5368 5367 5366 5366 5365
5464 5460 5456 5452 5449 5443 5439 5434 5430 5426 5423 5418 5413 5408 5405 5401 5396 5391 5386 5382 5378 5375 5372 5367 5367 5365 5364 5362 5360 5359 5357 5356 5355 5353 5353 5352 5351 5351
5454 5450 5446 5443 5441 5436 5430 5425 5421 5417 5414 5410 5406 5401 5397 5392 5388 5381 5375 5369 5363 5361 5358 5352 5351 5349 5348 5348 5346 5343 5342 5340 5339 5339 5338 5338 5338 5338
5444 5441 5438 5435 5432 5428 5422 5416 5412 5407 5404 5400 5395 5390 5385 5381 5376 5370 5363 5355 5348 5345 5344 5338 5334 5330 5330 5331 5329 5327 5326 5325 5325 5325 5325 5325 5325 5325
5435 5431 5429 5427 5424 5420 5415 5409 5405 5401 5395 5389 5384 5378 5373 5368 5363 5357 5351 5343 5335 5331 5329 5323 5318 5313 5310 5313 5315 5315 5314 5314 5313 5313 5314 5314 5314 5315
5427 5423 5420 5419 5415 5411 5406 5402 5398 5392 5385 5379 5373 5367 5361 5355 5350 5344 5338 5331 5325 5320 5315 5309 5305 5301 5299 5299 5301 5304 5304 5303 5304 5305 5306 5305 5305 5305
5420 5417 5414 5411 5406 5401 5397 5393 5388 5380 5374 5368 5361 5355 5349 5343 5338 5332 5326 5320 5315 5310 5305 5300 5295 5292 5289 5289 5291 5293 5294 5297 5298 5298 5298 5297 5297 5297
5412 5409 5405 5401 5397 5393 5388 5382 5376 5370 5363 5356 5350 5344 5338 5332 5326 5320 5314 5308 5303 5299 5296 5292 5288 5284 5282 5282 5283 5286 5286 5286 5291 5290 5291 5292 5292 5293
5404 5400 5395 5391 5386 5382 5377 5371 5365 5359 5353 5346 5339 5333 5328 5322 5315 5309 5303 5297 5292 5289 5286 5284 5281 5279 5278 5277 5279 5281 5282 5283 5285 5286 5287 5289 5291 5291
5397 5391 5386 5381 5376 5371 5366 5361 5355 5349 5342 5336 5329 5322 5316 5310 5304 5299 5293 5287 5284 5281 5278 5276 5274 5274 5274 5276 5277 5277 5278 5279 5281 5282 5282 5285 5290 5290
5388 5382 5377 5372 5367 5362 5356 5350 5344 5339 5332 5325 5318 5312 5306 5300 5295 5289 5284 5279 5276 5274 5272 5269 5267 5266 5269 5272 5275 5274 5273 5275 5277 5278 5280 5282 5287 5290
5379 5374 5369 5364 5359 5353 5347 5341 5335 5329 5322 5316 5309 5302 5296 5291 5285 5280 5276 5271 5269 5268 5267 5264 5262 5261 5261 5265 5269 5271 5269 5270 5272 5275 5278 5281 5284 5288
5372 5367 5362 5357 5352 5346 5339 5333 5326 5320 5313 5306 5300 5294 5288 5282 5278 5273 5269 5266 5264 5263 5262 5261 5260 5258 5258 5259 5264 5272 5270 5268 5269 5271 5274 5277 5283 5286
5365 5361 5356 5350 5344 5338 5331 5324 5317 5311 5304 5298 5292 5286 5280 5275 5271 5266 5263 5260 5258 5256 5257 5258 5257 5254 5253 5255 5260 5266 5270 5270 5269 5270 5272 5274 5276 5283
5359 5354 5349 5343 5337 5330 5323 5316 5309 5303 5297 5291 5285 5279 5274 5269 5264 5261 5257 5255 5253 5252 5252 5253 5254 5253 5252 5253 5256 5261 5265 5268 5269 5271 5274 5274 5277 5281